OPS 4682 DEB, 20031

Orbit data source: Space-Track

OPS 4682 DEB, 20031 is space debris in LEO originally from a launch on Sat, 03 Apr 1965 UTC launched from the Air Force Western Test Range (AFWTR). Debris objects in space refer to the collection of defunct objects orbiting the Earth. Examples of debris include non-operational satellites, rocket bodies, and fragments generated from explosions, collisions, or faulty payload assembly.

Loading next visibility...
Identifier
20031, 1965-027BB
Orbit
LEO
Country
Flag of USUS
Related business
Manufacturer
Unknown
Mission
Spacecraft
Bus & Motor
Unknown
Mass
Unknown
Launch date (UTC)
1965-04-03 (61 years ago)
Launch vehicle
Unknown
Launch site
Air Force Western Test Range (AFWTR)
Object type
Payload
Rocket body
Debris
Shape & HBR
Unknown shape, 0.1 m
Radar Cross Section
Medium (>0.1 m² and <1 m²)

Expand to show TLE details & history
Last TLE update: 21 hours ago

TLE from 21 hours ago
0 OPS 4682 DEB
1 20031U 65027BB  26207.35729061  .00000446  00000-0  14983-2 0  9997
2 20031  90.2305   0.1068 0030549 313.3025  72.5628 12.97963437772298
Epoch: 2026-07-26T08:34Z
TLE epoch observation values (Epoch: 2026-07-26T08:34:29.908Z)
Latitude
26.23001°
Longitude
-72.6872°
Altitude
1,266.324 km
Speed
7.228 km/s
True Right ascension
23h 59m 58s
True Declination
26° 06' 11"
Sunlit
Object was in daylight at epoch
Visualization orbit readout
Latitude
Unknown
Longitude
Unknown
Altitude
Unknown
Speed
Unknown
Apparent Right ascension
Unknown
Apparent Declination
Unknown
Sunlit
N/A
Visualization observer readout
Local Sidereal Time
19:00:48
Azimuth
Unknown
Elevation
Unknown
Doppler factor
Unknown
Orbital elements
Apogee altitude
1,290.562 km
Perigee altitude
1,243.851 km
Semi-major axis
7,645.343 km
Eccentricity
0.00305
Inclination
90.2305°
RAAN
0.1068°
Arg. of periapsis
313.3025°
True anomaly
72.89716°
Mean anomaly
72.5628°
Eccentric anomaly
72.72994°
Mean motion
3.24674 °/min
Orbital period
110.88 mins
BSTAR
0.0014983
Loading maneuver chart data...
Computing Atmospheric mass density...
Loading historical data...
Loading historical data...
Loading historical data...
Loading historical data...
Loading historical data...
Loading historical data...
Loading historical data...

Documentation

Showing up to 5 results
|